Torna al catalogo

FENGYUN 1C DEB

AttivoSSO
NORAD 31732·DEBRIS·🇨🇳 China

Lanciato May 10, 1999 da Taiyuan Satellite Launch Center

Loading…

Prossimi Passaggi (prossime 24 ore)

TLE

AggiornatoSource: Space-Track

Epoca: Sep 12, 2026, 12:46 UTC

1 31732U 99025CEF 26255.53263135  .00000311  00000-0  18889-3 0  9991
2 31732  98.5463 283.0267 0040281 181.9080 178.1946 14.12544168681954

Traccia FENGYUN 1C DEB in tempo reale con AllMySat

Download on the App Store